Tiempo cada hora Sacapa

Hoy, 20 Octubre, Martes

Tiempo Temperatura Precipitaciones Viento Presión Humedad
00:00 +19°C° 0.1 mm 0 mps 695 mmHg 96%
01:00 +19°C° 0 mm 0 mps 695 mmHg 96%
02:00 +19°C° 0 mm 0 mps 694 mmHg 96%
03:00 +18°C° 0 mm 0 mps 694 mmHg 97%
04:00 +18°C° 0 mm 0 mps 694 mmHg 97%
05:00 +18°C° 0 mm 0 mps 694 mmHg 97%
06:00 +18°C° 0 mm 0 mps 694 mmHg 97%
07:00 +20°C° 0 mm 0 mps 695 mmHg 91%
08:00 +22°C° 0 mm 0 mps 695 mmHg 85%
09:00 +24°C° 0 mm 0 mps 696 mmHg 80%
10:00 +27°C° 0.3 mm 1 mps 696 mmHg 76%
11:00 +28°C° 0.3 mm 1 mps 695 mmHg 73%
12:00 +29°C° 0.3 mm 1 mps 695 mmHg 70%
13:00 +29°C° 0.7 mm 1 mps 694 mmHg 72%
14:00 +28°C° 0.7 mm 1 mps 693 mmHg 74%
15:00 +28°C° 0.7 mm 1 mps 692 mmHg 77%
16:00 +26°C° 0.7 mm 1 mps 693 mmHg 83%
17:00 +25°C° 0.7 mm 1 mps 693 mmHg 89%
18:00 +23°C° 0.7 mm 1 mps 693 mmHg 95%
19:00 +23°C° 0.4 mm 1 mps 694 mmHg 95%
20:00 +22°C° 0.4 mm 1 mps 694 mmHg 96%
21:00 +22°C° 0.4 mm 1 mps 695 mmHg 96%
22:00 +21°C° 0.2 mm 1 mps 695 mmHg 96%
23:00 +21°C° 0.2 mm 1 mps 695 mmHg 96%

Mañana, 21 Octubre, Miércoles

Tiempo Temperatura Precipitaciones Viento Presión Humedad
00:00 +19°C° 0.2 mm 0 mps 695 mmHg 96%
01:00 +19°C° 0 mm 0 mps 694 mmHg 96%
02:00 +19°C° 0 mm 0 mps 694 mmHg 96%
03:00 +18°C° 0 mm 0 mps 694 mmHg 97%
04:00 +18°C° 0 mm 0 mps 694 mmHg 97%
05:00 +18°C° 0 mm 0 mps 694 mmHg 97%
06:00 +18°C° 0 mm 0 mps 695 mmHg 97%
07:00 +20°C° 0 mm 0 mps 695 mmHg 91%
08:00 +22°C° 0 mm 0 mps 696 mmHg 85%
09:00 +24°C° 0 mm 0 mps 697 mmHg 78%
10:00 +27°C° 0 mm 1 mps 697 mmHg 73%
11:00 +28°C° 0 mm 1 mps 696 mmHg 67%
12:00 +30°C° 0 mm 1 mps 696 mmHg 61%
13:00 +29°C° 0 mm 1 mps 695 mmHg 62%
14:00 +29°C° 0 mm 1 mps 695 mmHg 62%
15:00 +29°C° 0 mm 1 mps 694 mmHg 63%
16:00 +27°C° 0.1 mm 1 mps 694 mmHg 71%
17:00 +25°C° 0.1 mm 1 mps 694 mmHg 79%
18:00 +24°C° 0.1 mm 1 mps 694 mmHg 87%
19:00 +23°C° 0.1 mm 1 mps 695 mmHg 89%
20:00 +23°C° 0.1 mm 1 mps 695 mmHg 90%
21:00 +22°C° 0.1 mm 1 mps 696 mmHg 92%
22:00 +20°C° 0 mm 0 mps 696 mmHg 93%
23:00 +20°C° 0 mm 0 mps 695 mmHg 93%

Pasado mañana, 22 Octubre, Jueves

Tiempo Temperatura Precipitaciones Viento Presión Humedad
00:00 +19°C° 0 mm 0 mps 695 mmHg 94%
01:00 +19°C° 0 mm 0 mps 695 mmHg 95%
02:00 +19°C° 0 mm 0 mps 695 mmHg 96%
03:00 +19°C° 0 mm 0 mps 694 mmHg 96%
04:00 +19°C° 0 mm 0 mps 695 mmHg 97%
05:00 +18°C° 0 mm 0 mps 695 mmHg 97%
06:00 +18°C° 0 mm 0 mps 695 mmHg 97%
07:00 +20°C° 0 mm 0 mps 696 mmHg 90%
08:00 +22°C° 0 mm 0 mps 696 mmHg 83%
09:00 +24°C° 0 mm 0 mps 697 mmHg 77%
10:00 +26°C° 0 mm 0 mps 697 mmHg 73%
11:00 +27°C° 0 mm 0 mps 697 mmHg 68%
12:00 +28°C° 0 mm 0 mps 696 mmHg 64%
13:00 +30°C° 0 mm 1 mps 696 mmHg 64%
14:00 +29°C° 0 mm 1 mps 695 mmHg 65%
15:00 +29°C° 0 mm 1 mps 694 mmHg 65%
16:00 +28°C° 0.2 mm 1 mps 694 mmHg 73%
17:00 +26°C° 0.2 mm 1 mps 695 mmHg 81%
18:00 +24°C° 0.2 mm 1 mps 695 mmHg 89%
19:00 +23°C° 0.4 mm 1 mps 695 mmHg 90%
20:00 +23°C° 0.4 mm 1 mps 696 mmHg 92%
21:00 +22°C° 0.4 mm 1 mps 696 mmHg 93%
22:00 +22°C° 0.1 mm 1 mps 696 mmHg 94%
23:00 +20°C° 0.1 mm 0 mps 696 mmHg 94%

23 Octubre, Viernes

Tiempo Temperatura Precipitaciones Viento Presión Humedad
00:00 +20°C° 0.1 mm 0 mps 696 mmHg 94%
01:00 +20°C° 0.1 mm 0 mps 696 mmHg 95%
02:00 +19°C° 0.1 mm 0 mps 695 mmHg 96%
03:00 +19°C° 0.1 mm 0 mps 695 mmHg 96%
04:00 +19°C° 0 mm 0 mps 695 mmHg 96%
05:00 +19°C° 0 mm 0 mps 695 mmHg 97%
06:00 +19°C° 0 mm 0 mps 695 mmHg 97%
07:00 +21°C° 0 mm 0 mps 696 mmHg 91%
08:00 +23°C° 0 mm 0 mps 697 mmHg 84%
09:00 +25°C° 0 mm 0 mps 697 mmHg 78%
10:00 +28°C° 0.1 mm 1 mps 697 mmHg 74%
11:00 +29°C° 0.1 mm 1 mps 697 mmHg 69%
12:00 +30°C° 0.1 mm 1 mps 696 mmHg 64%
13:00 +30°C° 0.1 mm 1 mps 696 mmHg 64%
14:00 +30°C° 0.1 mm 1 mps 695 mmHg 64%
15:00 +29°C° 0.1 mm 1 mps 694 mmHg 64%
16:00 +28°C° 0.1 mm 1 mps 695 mmHg 72%
17:00 +26°C° 0.1 mm 1 mps 695 mmHg 80%
18:00 +24°C° 0.1 mm 1 mps 695 mmHg 88%
19:00 +23°C° 0.1 mm 1 mps 695 mmHg 91%
20:00 +23°C° 0.1 mm 1 mps 696 mmHg 93%
21:00 +22°C° 0.1 mm 1 mps 696 mmHg 95%
22:00 +22°C° 0 mm 1 mps 696 mmHg 95%
23:00 +20°C° 0 mm 0 mps 696 mmHg 96%

24 Octubre, Sábado

Tiempo Temperatura Precipitaciones Viento Presión Humedad
00:00 +19°C° 0 mm 0 mps 696 mmHg 96%
01:00 +19°C° 0 mm 0 mps 696 mmHg 96%
02:00 +19°C° 0 mm 0 mps 695 mmHg 97%
03:00 +19°C° 0 mm 0 mps 695 mmHg 97%
04:00 +19°C° 0 mm 0 mps 695 mmHg 97%
05:00 +19°C° 0 mm 0 mps 696 mmHg 96%
06:00 +19°C° 0 mm 0 mps 696 mmHg 96%
07:00 +21°C° 0.1 mm 0 mps 696 mmHg 91%
08:00 +22°C° 0.1 mm 0 mps 697 mmHg 85%
09:00 +26°C° 0.1 mm 1 mps 698 mmHg 79%
10:00 +27°C° 0.1 mm 1 mps 697 mmHg 74%
11:00 +29°C° 0.1 mm 1 mps 697 mmHg 69%
12:00 +30°C° 0.1 mm 1 mps 696 mmHg 64%
13:00 +29°C° 0.6 mm 1 mps 695 mmHg 68%
14:00 +28°C° 0.6 mm 1 mps 695 mmHg 73%
15:00 +28°C° 0.6 mm 2 mps 694 mmHg 78%
16:00 +26°C° 0.7 mm 1 mps 694 mmHg 84%
17:00 +25°C° 0.7 mm 1 mps 694 mmHg 90%
18:00 +24°C° 0.7 mm 1 mps 694 mmHg 96%
19:00 +23°C° 0.6 mm 1 mps 695 mmHg 96%
20:00 +23°C° 0.6 mm 1 mps 695 mmHg 96%
21:00 +22°C° 0.6 mm 1 mps 696 mmHg 96%
22:00 +22°C° 0.1 mm 1 mps 696 mmHg 96%
23:00 +22°C° 0.1 mm 1 mps 695 mmHg 96%

25 Octubre, Domingo

Tiempo Temperatura Precipitaciones Viento Presión Humedad
00:00 +20°C° 0.1 mm 0 mps 695 mmHg 96%
01:00 +20°C° 0.2 mm 0 mps 695 mmHg 96%
02:00 +22°C° 0.2 mm 1 mps 695 mmHg 97%
03:00 +22°C° 0.2 mm 1 mps 695 mmHg 97%
04:00 +20°C° 0.1 mm 0 mps 695 mmHg 97%
05:00 +20°C° 0.1 mm 0 mps 695 mmHg 97%
06:00 +20°C° 0.1 mm 0 mps 695 mmHg 97%
07:00 +21°C° 0.1 mm 0 mps 696 mmHg 94%
08:00 +24°C° 0.1 mm 1 mps 696 mmHg 92%
09:00 +25°C° 0.1 mm 1 mps 697 mmHg 89%
10:00 +26°C° 0.7 mm 1 mps 696 mmHg 86%
11:00 +27°C° 0.7 mm 1 mps 696 mmHg 83%
12:00 +28°C° 0.7 mm 1 mps 695 mmHg 80%
13:00 +27°C° 1 mm 1 mps 695 mmHg 81%
14:00 +27°C° 1 mm 1 mps 694 mmHg 82%
15:00 +27°C° 1 mm 1 mps 694 mmHg 83%
16:00 +26°C° 1 mm 1 mps 694 mmHg 88%
17:00 +25°C° 1 mm 1 mps 694 mmHg 92%
18:00 +23°C° 1 mm 1 mps 694 mmHg 96%
19:00 +23°C° 1 mm 1 mps 695 mmHg 96%
20:00 +23°C° 1 mm 1 mps 695 mmHg 96%
21:00 +23°C° 1 mm 1 mps 695 mmHg 96%
22:00 +20°C° 0.5 mm 0 mps 695 mmHg 96%
23:00 +20°C° 0.5 mm 0 mps 695 mmHg 96%

26 Octubre, Lunes

Tiempo Temperatura Precipitaciones Viento Presión Humedad
00:00 +20°C° 0.5 mm 0 mps 695 mmHg 96%
01:00 +20°C° 0 mm 0 mps 694 mmHg 96%
02:00 +20°C° 0 mm 0 mps 694 mmHg 96%
03:00 +19°C° 0 mm 0 mps 694 mmHg 96%
04:00 +19°C° 0 mm 0 mps 694 mmHg 96%
05:00 +19°C° 0 mm 0 mps 694 mmHg 97%
06:00 +19°C° 0 mm 0 mps 694 mmHg 97%
07:00 +21°C° 0 mm 0 mps 695 mmHg 92%
08:00 +22°C° 0 mm 0 mps 695 mmHg 87%
09:00 +24°C° 0 mm 0 mps 696 mmHg 83%
10:00 +25°C° 0.4 mm 0 mps 696 mmHg 79%
11:00 +26°C° 0.4 mm 0 mps 695 mmHg 76%
12:00 +29°C° 0.4 mm 1 mps 695 mmHg 72%
13:00 +29°C° 0.9 mm 1 mps 694 mmHg 74%
14:00 +29°C° 0.9 mm 1 mps 694 mmHg 76%
15:00 +28°C° 0.9 mm 1 mps 693 mmHg 77%
16:00 +27°C° 2.8 mm 1 mps 693 mmHg 83%
17:00 +25°C° 2.8 mm 1 mps 693 mmHg 89%
18:00 +24°C° 2.8 mm 1 mps 693 mmHg 95%
19:00 +23°C° 1.7 mm 1 mps 694 mmHg 96%
20:00 +23°C° 1.7 mm 1 mps 694 mmHg 97%
21:00 +23°C° 1.7 mm 1 mps 695 mmHg 97%
22:00 +23°C° 1.2 mm 1 mps 695 mmHg 97%
23:00 +20°C° 1.2 mm 0 mps 694 mmHg 98%
Mostrar más

Necesitamos Su Consentimiento

Meteoprog y nuestros Proveedores de Servicios pueden almacenar y acceder a sus datos personales como cookies, identificadores de dispositivo u otras tecnologías similares de su dispositivo y procesar dichos datos para personalizar contenido y anuncios, además de ofrecer funciones de redes sociales y analizar el tráfico.

  • Almacenar y/o acceder a información en su dispositivo

    Se puede almacenar o acceder a cookies, identificadores de dispositivo u otra información de su dispositivo para los fines anteriormente indicados.

  • Anuncios y contenido personalizados, medición de anuncios y contenido, percepciones del público, y desarrollo de productos

    Los anuncios y el contenido pueden personalizarse en base a su perfil. Se pueden añadir más datos para personalizar mejor los anuncios y contenidos. Se puede medir el rendimiento de los anuncios y contenidos. Se puede obtener la percepción sobre el público que ha visto los anuncios y contenidos. Dichos datos pueden usarse para desarrollar o mejorar la experiencia del usuario, sistemas y software.

Al hacer clic en ‘Estoy De Acuerdo’ usted permitirá el uso de las cookies, identificadores de dispositivo, balizas web u otras tecnologías similares indicadas. Su configuración puede cambiarse desde el navegador de su dispositivo.

Para ciertos fines, los intereses legítimos pueden ser considerados por encima del consentimiento. Puede leer más sobre ello en nuestra Política de Privacidad y Cookies.